Location: Newark
(13.8117°N, 3.6025°W)
Time: 05:36:31
(UTC+00:00)

Vanguard 2 - Pass Details

Date: 02 September 2019
Orbit: 554 x 2937 km, 32.9° (Epoch: 21 September)

Event Time Altitude Azimuth Distance (km) Brightness Sun altitude
Rises 16:52:42 0° 292° (WNW) 4,133 12.5 21.5°
Reaches altitude 10° 16:55:08 10° 287° (WNW) 3,423 12.7 21.0°
Maximum altitude 17:04:02 56° 212° (SSW) 2,207 10.4 18.8°
Drops below altitude 10° 17:18:29 10° 138° (SE) 5,352 11.4 15.3°
Sets 17:23:22 0° 135° (SE) 6,585 11.8 14.1°
